Regional Weather Roundup
Issued by NWS Newport/Morehead, NC

Current Version | Previous Version | Graphics & Text | Print | Product List | Glossary On
Versions: 1 2 3 4 5 6 7 8 9 10 11 12 13 14 15 16 17 18 19 20 21 22 23 24 25 26 27 28 29 30 31 32 33 34 35 36 37 38 39 40 41 42 43 44 45 46 47 48 49 50
000
ASUS42 KMHX 020722
RWRMHX
WEATHER ROUNDUP FOR EASTERN NORTH CAROLINA
NATIONAL WEATHER SERVICE NEWPORT/MOREHEAD CITY NC
300 AM EDT SAT AUG 02 2014

NOTE: "FAIR" INDICATES FEW OR NO CLOUDS BELOW 12,000 FEET
WITH NO SIGNIFICANT WEATHER AND/OR OBSTRUCTIONS TO VISIBILITY

NCZ015>017-031-032-045>047-102-103-020800-
NORTH COAST

CITY           SKY/WX    TMP DP  RH WIND       PRES   REMARKS
EDENTON        CLOUDY    75  74  95 SW5       30.06R
ELIZABETH CITY MOCLDY    75  73  94 S7        30.06S
KITTY HAWK     LGT RAIN  75  72  92 S5        30.05F
MANTEO         NOT AVBL

$$

NCZ045>047-081-094-103-104-020800-
CENTRAL COAST

CITY           SKY/WX    TMP DP  RH WIND       PRES   REMARKS
FRISCO         LGT RAIN  74  74 100 S15G23    30.09S
SWANQUARTER      N/A     77 N/A N/A SE10G18   30.03S

$$

NCZ095-097-098-100-101-020800-
SOUTHERN COAST

CITY           SKY/WX    TMP DP  RH WIND       PRES   REMARKS
BEAUFORT       LGT RAIN  77  74  90 S12       30.07S
CEDAR ISLAND     N/A     75 N/A N/A SE5G13    30.09S
JACKSONVILLE   CLOUDY    74  73  97 CALM      30.04S
NEWPORT        NOT AVBL
PINEY ISLAND   CLOUDY    76  75  97 S8        30.06F
WILMINGTON     MOCLDY    77  74  90 CALM      30.03F


$$

NCZ011>013-027>030-043-044-078>080-089-090>093-098-020800-
COASTAL PLAIN

CITY           SKY/WX    TMP DP  RH WIND       PRES   REMARKS
AHOSKIE        CLOUDY    65  64  94 CALM      30.07F
CLINTON        CLOUDY    69  69 100 N3        30.06F FOG
ELIZABETHTOWN  CLOUDY    70  70 100 CALM      30.05R FOG
GOLDSBORO      CLOUDY    68  68  99 N6        30.05F FOG
GREENVILLE     CLOUDY    68  68 100 CALM      30.08S FOG
HAVELOCK       MOCLDY    74  72  93 SE7       30.07S
KENANSVILLE    FOG       70  69  96 CALM      30.06F VSB 3/4
KINSTON        FOG       70  69  98 CALM      30.07S VSB 3/4
NEW BERN       PTCLDY    74  71  91 SE3       30.07R
RICHLANDS      MOCLDY    72  70  94 CALM      30.05S
ROANOKE RAPIDS NOT AVBL
ROCKY MOUNT    CLOUDY    66  65  96 N7        30.06F FOG
WASHINGTON     CLOUDY    73  72  98 CALM      30.06F
WHITEVILLE     FOG       73  72  96 CALM      30.03S VSB 1

$$

AMZ130-135-150-152-154-156-158-170-250-252-270-ANZ085-086-088-633-658-670-020800-
MARINE OBSERVATIONS

STATION/POSITION TIME  TEMP    WIND        PRES    WAVE   SWELL
                       AIR SEA DIR/SP/G            HT/PER HT/PER
                 (UTC) (F)     (DEG/KT/KT) (MB)    (FT/S) (FT/S)
CHESAPEAKE LIGHT NOT AVBL
BUOY 44014       0700   78 77  160/ 16/ 17 1017.7    4/ 5   2/ 8
DUCK             0700   75 66  160/ 16/ 17 1016.8
2E DUCK          0700                        N/A     3/ 5
OREGON INLET     0700   76 76  160/  7/ 10 1018.2
BUOY 44095       0600      77                N/A     4/ 5
20E OREGON INLET NOT AVBL
HATTERAS CG      0700   74 79  170/  8/ 15 1019.1
DIAMOND BUOY     0700          VRB 14/ 17  1018.5    4/ 6   2/ 9
CAPE LOOKOUT     0700   76     190/ 18/ 20 1018.3
BEAUFORT LAB     0700   77 79  180/ 19/ 22 1017.7
30 SE NEW RIVER  0700   78 81  120/ 12/ 14 1018.0    4/ 6   2/ 6
5 SE WRIGHTSVILL 0700   76 81  150/  8/ 10   N/A
BUOY 41002       0602   81 81  170/ 16/ 17 1018.5    5/ 7   2/ 9
BUOY 41004       0700   82 82  180/ 12/ 16 1014.9    3/ 6   2/ 6

$$


USA.gov is the U.S. government's official web portal to all federal, state and local government web resources and services.